Content
SEND FEEDBACK

Daily
Averages
Monthly
Summary
United States of America

NEW YORK - CENTRAL PARK, NEW YORK


Home > North America > United States > New York
Elevation: 14 feet     Latitude: 40 47N     Longitude: 073 58W

WEATHER
 
SELECT A DAY
Number of Records: 148,168;   Date Range: 11/1/95 - 8/12/14
 
SHARE

PRINT THIS DATA

[ ← Previous Day ]
WEATHER ALMANAC - JANUARY 15, 2013
[ Next Day → ]
[ °C ]   °F
Weather ElementAverageHighLow
Temperature36.8 °F37.9 °F (1:51 pm)35.1 °F (2:51 am)
Dewpoint26 °F32 °F (1:51 am)23 °F (5:51 pm)
Humidity65.7 %89 % (2:51 am)55 % (7:51 pm)
Barometer30.28 in30.34 in (8:51 am)30.22 in (11:51 pm)
Wind Speed6.9 mph12.7 mph (5:51 am)
Weather ElementAverage
Visibility9.6 mi
Wind DirectionNNE (38.7 °)

Weather ElementTotal
Precipitation0.11 in
Heating Degree Days28.5 (Base 65)
Averaged from 23 records on January 15, 2013
WEATHER CONDITIONS BREAKOUT
WIND DIRECTION BREAKOUT
WEATHER BY HOUR - JANUARY 15, 2013
[ °C ]   °F
Local TimeTemperatureDewpointHumidityBarometerVisibilityWind DirectionWind SpeedGust SpeedPrecipitationEventsConditions
1:51 AM36.0 °F32.0 °F86 %30.27 in7.0 miVariable5.8 mph0.04 inRainLight Rain
2:51 AM35.1 °F32.0 °F89 %30.26 in6.0 miNE (40°)9.2 mph0.04 inRainLight Rain
3:51 AM35.1 °F30.9 °F85 %30.25 in10.0 miNorth (10°)8.1 mph0.00 inOvercast
4:51 AM36.0 °F30.9 °F82 %30.26 in10.0 miENE (60°)5.8 mphOvercast
5:51 AM36.0 °F27.0 °F70 %30.27 in10.0 miNE (50°)12.7 mphOvercast
6:51 AM36.0 °F27.0 °F70 %30.29 in10.0 miNorth (360°)8.1 mphOvercast
7:51 AM36.0 °F27.0 °F70 %30.31 in10.0 miVariable4.6 mphOvercast
8:51 AM36.0 °F25.0 °F64 %30.34 in10.0 miNNE (20°)9.2 mphOvercast
9:51 AM36.0 °F25.0 °F64 %30.33 in10.0 miNNE (30°)8.1 mphOvercast
10:51 AM37.0 °F25.0 °F62 %30.34 in10.0 miNE (50°)5.8 mphOvercast
11:51 AM37.0 °F25.0 °F62 %30.32 in10.0 miVariable6.9 mphOvercast
12:51 PM37.0 °F24.1 °F59 %30.28 in10.0 miVariable6.9 mphOvercast
1:51 PM37.9 °F26.1 °F62 %30.27 in10.0 miVariable4.6 mphOvercast
2:51 PM37.9 °F24.1 °F57 %30.27 in10.0 miVariable5.8 mphOvercast
3:51 PM37.9 °F24.1 °F57 %30.27 in10.0 miNNE (30°)5.8 mphOvercast
4:51 PM37.9 °F24.1 °F57 %30.28 in10.0 miNE (40°)3.5 mphOvercast
5:51 PM37.0 °F23.0 °F57 %30.26 in10.0 miNNE (20°)5.8 mphOvercast
6:51 PM37.9 °F24.1 °F57 %30.28 in10.0 miNorthOvercast
7:51 PM37.9 °F23.0 °F55 %30.27 in10.0 miVariable5.8 mphOvercast
8:51 PM37.9 °F24.1 °F57 %30.27 in10.0 miNE (40°)5.8 mphOvercast
9:51 PM37.9 °F23.0 °F55 %30.24 in10.0 miENE (60°)9.2 mphOvercast
10:51 PM37.0 °F25.0 °F62 %30.23 in9.0 miVariable6.9 mph0.01 inOvercast
11:51 PM35.1 °F27.0 °F72 %30.22 in9.0 miEast (80°)8.1 mph0.02 inOvercast
Hourly data recorded from KNYC, located miles away from New York - Central Park, New York







STORIES FROM OUR PARTNERS